Location: Kergonan
(48.2337°N, 4.5518°W)
Time: 15:58:36
(UTC+00:00)

ATLAS 2AS CENTAUR R/B - Pass Details

Date: 18 January 2020
Orbit: 929 x 1283 km, 63.7° (Epoch: 08 February)

Event Time Altitude Azimuth Distance (km) Brightness Sun altitude
Rises 06:04:41 0° 192° (SSW) 4,175 5.8 -19.1°
Reaches altitude 10° 06:07:33 10° 186° (S) 3,239 5.3 -18.6°
Maximum altitude 06:14:57 45° 117° (ESE) 1,681 4.2 -17.4°
Drops below altitude 10° 06:22:26 10° 48° (NE) 3,272 5.7 -16.2°
Sets 06:25:20 0° 43° (NE) 4,221 6.2 -15.7°
